Regional Weather Roundup
Issued by NWS Green Bay, WI

Home | Current Version | Previous Version | Graphics & Text | Print | Product List | Glossary Off
Versions: 1 2 3 4 5 6 7 8 9 10 11 12 13 14 15 16 17 18 19 20 21 22 23 24 25 26 27 28 29 30 31 32 33 34 35 36 37 38 39 40 41 42 43 44 45 46 47 48 49 50

000
ASUS43 KGRB 230210
RWRGRB

NORTH-CENTRAL AND NORTHEAST WISCONSIN REGIONAL WEATHER ROUNDUP
NATIONAL WEATHER SERVICE GREEN BAY WI
900 PM CDT FRI AUG 22 2014

WIZ005-009-010>012-018-019-230300-
NORTH CENTRAL WISCONSIN

CITY           SKY/WX    TMP DP  RH WIND       PRES   REMARKS
IRONWOOD       CLOUDY    61  61 100 W6        30.02R VSB 1/2
MANITOWISH WTR CLOUDY    67  67 100 N3        30.04R
ARBOR VITAE    CLOUDY    72  69  90 N5        30.03S
EAGLE RIVER    CLOUDY    69  69 100 CALM      30.03R FOG
LAND O LAKES   FOG       69  69 100 CALM      30.04R VSB 1/2
RHINELANDER    PTCLDY    69  69 100 CALM      30.03R
PHILLIPS       CLOUDY    69  68  97 N3        30.03R FOG
ANTIGO         CLOUDY    70  70  99 E5        30.03R FOG
TOMAHAWK       CLOUDY    68  66  95 CALM      30.03R FOG
MERRILL        CLOUDY    69  69 100 CALM      30.00S FOG
$$

WIZ013-073-230300-
NORTHEAST WISCONSIN

CITY           SKY/WX    TMP DP  RH WIND       PRES   REMARKS
IRON MOUNTAIN  CLOUDY    71  68  90 SE8       30.01R
MARINETTE      PTCLDY    70  66  88 E5        30.00R
OCONTO         CLOUDY    70  70 100 E5        30.00R
$$

WIZ017-030-035>037-045-230300-
CENTRAL WISCONSIN

CITY           SKY/WX    TMP DP  RH WIND       PRES   REMARKS
MEDFORD        MOCLDY    69  69  99 NE3       30.02R FOG
WAUSAU         MOCLDY    74  71  91 NE6       29.99R
MOSINEE        PTCLDY    73  73 100 NE7       30.00  FOG
MARSHFIELD     CLEAR     73  69  87 N6        29.99R
WISC RAPIDS    MOCLDY    76  74  93 CALM      29.98R
STEVENS POINT  PTCLDY    75  70  84 NE6       29.99R
WAUPACA        MOCLDY    76  74  93 E8        29.98R
SHAWANO        CLOUDY    75  71  87 NE8       30.00R FOG
CLINTONVILLE   CLOUDY    73  72  94 SE6       29.99R
$$

WIZ038-039-048-051-230300-
FOX VALLEY

CITY           SKY/WX    TMP DP  RH WIND       PRES   REMARKS
NWS GREEN BAY  MOCLDY    72  70  93 E7        29.99R
APPLETON       MOCLDY    73  68  83 SE8       29.99R
OSHKOSH        PTCLDY    75  71  87 SE8       29.97R
FOND DU LAC    CLEAR     75  69  81 SE9       29.98R
$$

WIZ022-050-052-230300-
EAST CENTRAL WISCONSIN

CITY           SKY/WX    TMP DP  RH WIND       PRES   REMARKS
STURGEON BAY   CLOUDY    70  66  88 E3        30.01R
MANITOWOC      FOG       69  68  96 E5        30.00R VSB 1/2
SHEBOYGAN      FOG       68  67  96 E5        30.00R VSB 1/4
$$

LMZ563-521-522-541>543-230300-
LAKESHORE

STATION/POSITION TIME  TEMP    WIND        PRES    VSBY  WAVE
                       AIR SEA DIR/SP/G                  HT/PER
                 (UTC) (F)     (DEG/KT/KT) (MB)    (MI)  (FT/S)
SHEBOYGAN LKSHOR 0200   67 65   30/  2/  2 1015.9R
KEWAUNEE LKSHORE 0200   67      50/  2/  2 1014.9F
ALGOMA MARINA    0100           80/  6/  8   N/A
NORTHPORT PIER   0200   67     100/  1/  4 1016.3R
N MID LAKE BUOY  0200   68 66   60/  6/  6 1015.7R         0
S GREEN BAY BUOY 0100   71     VRB  8      1016.4R
SISTER BAY LKSHO 0200   67     120/  7/ 10   N/A
CHAMBERS ISLAND  0200   69      50/  2/  5 1016.3R
MENOMINEE LKSHOR 0200   69     100/  3/  5 1016.6R
$$


USA.gov is the U.S. government's official web portal to all federal, state and local government web resources and services.